Location: *
(13.0000°N, 151.6000°E)
Time: 15:56:42
(UTC+00:00)

Cosmos 1092 Rocket - Pass Details

Date: 01 April 2020
Orbit: 954 x 995 km, 83.0° (Epoch: 03 June)

Event Time Altitude Azimuth Distance (km) Brightness Sun altitude
Rises 18:20:33 0° 181° (S) 3,690 6.9 -22.2°
Reaches altitude 10° 18:23:03 10° 181° (S) 2,746 6.2 -21.6°
Maximum altitude 18:29:23 83° 93° (E) 1,003 4.1 -20.1°
Drops below altitude 10° 18:35:43 10° 6° (N) 2,755 6.5 -18.6°
Sets 18:38:14 0° 5° (N) 3,703 7.2 -18.0°
